Location: Kershaw
(34.5481°N, 80.5823°W)
Time: 07:19:38
(UTC+00:00)

Explorer 7 - Pass Details

Date: 08 October 2022
Orbit: 481 x 665 km, 50.3° (Epoch: 28 November)

Event Time Altitude Azimuth Distance (km) Brightness Sun altitude
Rises 13:05:06 0° 225° (SW) 2,926 10.3 19.6°
Reaches altitude 10° 13:07:23 10° 224° (SW) 2,040 9.6 20.0°
Maximum altitude 13:12:07 80° 137° (SE) 673 7.8 20.9°
Drops below altitude 10° 13:16:58 10° 51° (NE) 2,088 10.2 21.8°
Sets 13:19:20 0° 51° (NE) 3,001 10.9 22.3°
